Location: Marcé
(47.5801°N, 0.3280°W)
Time: 17:03:39
(UTC+01:00)

SR - Pass Details

Date: 06 December 2021
Orbit: 582 x 872 km, 66.7° (Epoch: 22 January)

Event Time Altitude Azimuth Distance (km) Brightness Sun altitude
Rises 00:37:59 0° 225° (SW) 2,961 - -64.7°
Reaches altitude 10° 00:40:22 10° 229° (SW) 2,014 - -64.8°
Maximum altitude 00:44:47 56° 308° (NW) 728 - -64.9°
Drops below altitude 10° 00:49:02 10° 27° (NNE) 1,926 - -64.9°
Sets 00:51:16 0° 32° (NNE) 2,819 - -64.9°
